Flag for France Weather past 2 weeks in Nancy, France

Now
34 °F

Clear.


Feels Like: 26 °F
Forecast: 33 / 39 °F
Wind: 9 mph from South

Location: Nancy / Ochey

Current Time: Dec 26, 2014 at 10:39:18 PM

Latest Report: Dec 26, 2014 at 10:00 PM


Visibility: N/A

Pressure: 30.21 "Hg

Humidity: 93%

Dew point: 32 °F

Location of NancyLocation

Historic Weather in Nancy — Graph

°F

Nancy temperature yesterday

Maximum temperature yesterday: 45 °F (at 12:00 AM)
Minimum temperature yesterday: 36 °F (at 8:30 AM)
Average temperature yesterday: 40 °F

Past Weeks' High & Low Weather Summary

 TemperatureHumidityPressure
High54 °F (Dec 18, 1:30 PM)100% (Dec 13, 10:30 PM)30.54 "Hg (Dec 13, 10:30 PM)
Low28 °F (Dec 23, 8:30 PM)66% (Dec 13, 5:30 AM)29.71 "Hg (Dec 12, 3:30 PM)
Average42 °F91%30.14 "Hg
* Reported Dec 11 9:00 PM — Dec 26 9:30 PM, Nancy, Weather by CustomWeather, © 2014

Note: Actual official high and low records may vary slightly from our data, if they occured in-between our weather recording intervals... More about our weather records

Advertising

Nancy weather history for previous 24 hours

 ConditionsComfort  
Time TempWeatherWind HumidityBarometerVisibility
9:30 PM
Dec 26
34 °FPassing clouds.10 mph93%30.24 "HgN/A
9:00 PM34 °FPassing clouds.10 mph93%30.24 "HgN/A
8:30 PM36 °FClear.9 mph87%30.27 "HgN/A
8:00 PM36 °FClear.10 mph87%30.30 "HgN/A
7:30 PM36 °FClear.9 mph87%30.30 "HgN/A
7:00 PM36 °FPassing clouds.7 mph87%30.30 "HgN/A
6:30 PM36 °FOvercast.7 mph93%30.33 "HgN/A
6:00 PM36 °FOvercast.7 mph93%30.33 "HgN/A
5:30 PM36 °FOvercast.5 mph93%30.33 "HgN/A
5:00 PM36 °FOvercast.5 mph93%30.36 "HgN/A
4:30 PM37 °FOvercast.5 mph87%30.36 "HgN/A
4:00 PM37 °FPartly sunny.5 mph87%30.36 "HgN/A
3:30 PM37 °FMostly cloudy.5 mph87%30.36 "HgN/A
3:00 PM37 °FBroken clouds.5 mph87%30.39 "HgN/A
2:30 PM37 °FPartly sunny.6 mph87%30.39 "HgN/A
2:00 PM37 °FBroken clouds.7 mph87%30.39 "HgN/A
1:30 PM39 °FBroken clouds.9 mph81%30.39 "HgN/A
1:00 PM37 °FMostly cloudy.8 mph87%30.42 "HgN/A
12:30 PM37 °FMostly cloudy.6 mph87%30.42 "HgN/A
12:00 PM36 °FMostly cloudy.5 mph100%30.42 "HgN/A
11:30 AM36 °FLow clouds.7 mph100%30.42 "Hg4 mi
11:00 AM36 °FLow clouds.7 mph100%30.45 "Hg4 mi
10:30 AM36 °FLow clouds.6 mph100%30.45 "Hg4 mi
10:00 AM36 °FLow clouds.5 mph100%30.45 "Hg5 mi
9:30 AM36 °FLow clouds.5 mph100%30.42 "HgN/A
9:00 AM36 °FLow clouds.5 mph93%30.42 "HgN/A
8:30 AM36 °FMostly cloudy.3 mph100%30.42 "Hg6 mi
8:00 AM36 °FLow clouds.5 mph100%30.42 "Hg6 mi
7:30 AM36 °FMostly cloudy.5 mph93%30.42 "HgN/A
7:00 AM36 °FMostly cloudy.5 mph100%30.42 "HgN/A
6:30 AM36 °FPassing clouds.5 mph100%30.42 "HgN/A
6:00 AM36 °FLow clouds.6 mph100%30.42 "HgN/A
5:30 AM36 °FOvercast.5 mph100%30.42 "HgN/A
5:00 AM36 °FMostly cloudy.3 mph100%30.42 "HgN/A
4:30 AM36 °FLow clouds.6 mph100%30.42 "HgN/A
3:30 AM36 °FLow clouds.6 mph100%30.42 "Hg6 mi
3:00 AM36 °FMostly cloudy.5 mph100%30.42 "Hg4 mi
2:30 AM36 °FMostly cloudy.5 mph100%30.42 "Hg4 mi
2:00 AM36 °FOvercast.5 mph100%30.42 "HgN/A
1:30 AM36 °FPassing clouds.5 mph100%30.42 "HgN/A
1:00 AM36 °FPassing clouds.3 mph100%30.42 "HgN/A
12:30 AM37 °FPassing clouds.3 mph93%30.42 "HgN/A
12:00 AM37 °FMostly cloudy.3 mph100%30.42 "HgN/A
11:30 PM
Dec 25
37 °FLow clouds.3 mph93%30.42 "HgN/A
11:00 PM37 °FPartly cloudy.6 mph93%30.39 "HgN/A
10:30 PM37 °FPartly cloudy.6 mph93%30.42 "HgN/A
10:00 PM36 °FPassing clouds.5 mph100%30.42 "HgN/A
Weather by CustomWeather, © 2014

See weather overviewHow to use our weather pages